When you browse on this site, cookies collect data to enhance your experience and personalize the content and advertising you see.
Visit our Privacy Policy to learn more. By continuing to use the site, you agree to this use of cookies and data.
  • In Romania
  • List of Countries
  • For 7 days
  • Water Temperature
  • Satellite Maps
  • Weather Map
  • Weather Widgets
  • user-avatar
    Login

    Hourly Weather Lons-le-Saunier

    Today, 21 April, Sunday

    Time Temperature Precipitation Wind Pressure Humidity
    00:00 +13°C° 0 mm 2 mps 732 mmHg 73%
    01:00 +12°C° 0 mm 1 mps 732 mmHg 71%
    02:00 +12°C° 0 mm 1 mps 732 mmHg 70%
    03:00 +12°C° 0 mm 1 mps 731 mmHg 68%
    04:00 +12°C° 0 mm 1 mps 731 mmHg 68%
    05:00 +12°C° 0 mm 1 mps 731 mmHg 67%
    06:00 +12°C° 0 mm 1 mps 731 mmHg 67%
    07:00 +15°C° 0 mm 1 mps 731 mmHg 61%
    08:00 +18°C° 0 mm 1 mps 731 mmHg 55%
    09:00 +21°C° 0 mm 1 mps 730 mmHg 49%
    10:00 +21°C° 0 mm 1 mps 730 mmHg 48%
    11:00 +21°C° 0 mm 2 mps 730 mmHg 47%
    12:00 +23°C° 0 mm 2 mps 730 mmHg 45%
    13:00 +21°C° 0 mm 2 mps 729 mmHg 49%
    14:00 +21°C° 0 mm 2 mps 729 mmHg 52%
    15:00 +21°C° 0 mm 1 mps 728 mmHg 56%
    16:00 +20°C° 0 mm 1 mps 728 mmHg 63%
    17:00 +19°C° 0 mm 1 mps 728 mmHg 70%
    18:00 +16°C° 0 mm 1 mps 728 mmHg 77%
    19:00 +15°C° 0 mm 1 mps 728 mmHg 79%
    20:00 +14°C° 0 mm 1 mps 728 mmHg 82%
    21:00 +13°C° 0 mm 1 mps 728 mmHg 84%
    22:00 +12°C° 0 mm 1 mps 727 mmHg 85%
    23:00 +12°C° 0 mm 1 mps 727 mmHg 87%

    Tomorrow, 22 April, Monday

    Time Temperature Precipitation Wind Pressure Humidity
    00:00 +11°C° 0 mm 1 mps 727 mmHg 89%
    01:00 +12°C° 0 mm 1 mps 726 mmHg 88%
    02:00 +11°C° 0 mm 0 mps 726 mmHg 87%
    03:00 +11°C° 0 mm 0 mps 725 mmHg 86%
    04:00 +11°C° 0 mm 0 mps 725 mmHg 85%
    05:00 +11°C° 0 mm 0 mps 725 mmHg 85%
    06:00 +11°C° 0 mm 0 mps 724 mmHg 84%
    07:00 +15°C° 0 mm 1 mps 724 mmHg 75%
    08:00 +18°C° 0 mm 1 mps 723 mmHg 65%
    09:00 +20°C° 0 mm 1 mps 723 mmHg 56%
    10:00 +21°C° 0 mm 2 mps 722 mmHg 52%
    11:00 +23°C° 0 mm 2 mps 721 mmHg 47%
    12:00 +24°C° 0 mm 2 mps 721 mmHg 43%
    13:00 +24°C° 0 mm 2 mps 720 mmHg 44%
    14:00 +24°C° 0 mm 2 mps 719 mmHg 46%
    15:00 +24°C° 0 mm 2 mps 719 mmHg 47%
    16:00 +21°C° 0 mm 2 mps 718 mmHg 56%
    17:00 +19°C° 0 mm 2 mps 718 mmHg 65%
    18:00 +19°C° 0 mm 1 mps 717 mmHg 73%
    19:00 +16°C° 0 mm 1 mps 717 mmHg 76%
    20:00 +15°C° 0 mm 1 mps 717 mmHg 78%
    21:00 +14°C° 0 mm 1 mps 717 mmHg 80%
    22:00 +13°C° 0 mm 1 mps 717 mmHg 80%
    23:00 +13°C° 0 mm 2 mps 717 mmHg 81%

    Day after tomorrow, 23 April, Tuesday

    Time Temperature Precipitation Wind Pressure Humidity
    00:00 +13°C° 0 mm 2 mps 717 mmHg 82%
    01:00 +13°C° 0.1 mm 2 mps 717 mmHg 86%
    02:00 +13°C° 0.1 mm 2 mps 717 mmHg 90%
    03:00 +13°C° 0.1 mm 2 mps 716 mmHg 94%
    04:00 +13°C° 0.4 mm 2 mps 716 mmHg 95%
    05:00 +13°C° 0.4 mm 1 mps 716 mmHg 95%
    06:00 +13°C° 0.4 mm 1 mps 716 mmHg 96%
    07:00 +13°C° 0.4 mm 1 mps 716 mmHg 94%
    08:00 +14°C° 0.4 mm 1 mps 716 mmHg 93%
    09:00 +14°C° 0.4 mm 1 mps 716 mmHg 92%
    10:00 +18°C° 0.1 mm 1 mps 716 mmHg 80%
    11:00 +20°C° 0.1 mm 1 mps 716 mmHg 68%
    12:00 +22°C° 0.1 mm 1 mps 716 mmHg 57%
    13:00 +22°C° 0 mm 1 mps 716 mmHg 55%
    14:00 +22°C° 0 mm 1 mps 716 mmHg 52%
    15:00 +22°C° 0 mm 1 mps 716 mmHg 50%
    16:00 +21°C° 0.2 mm 1 mps 716 mmHg 59%
    17:00 +19°C° 0.2 mm 1 mps 716 mmHg 69%
    18:00 +18°C° 0.2 mm 1 mps 716 mmHg 78%
    19:00 +16°C° 0.3 mm 2 mps 717 mmHg 79%
    20:00 +15°C° 0.3 mm 2 mps 718 mmHg 80%
    21:00 +13°C° 0.3 mm 3 mps 718 mmHg 81%
    22:00 +13°C° 0.2 mm 3 mps 718 mmHg 83%
    23:00 +12°C° 0.2 mm 3 mps 719 mmHg 85%

    24 April, Wednesday

    Time Temperature Precipitation Wind Pressure Humidity
    00:00 +12°C° 0.2 mm 3 mps 719 mmHg 88%
    01:00 +12°C° 0 mm 3 mps 719 mmHg 87%
    02:00 +13°C° 0 mm 2 mps 719 mmHg 87%
    03:00 +12°C° 0 mm 2 mps 719 mmHg 87%
    04:00 +13°C° 0 mm 2 mps 719 mmHg 86%
    05:00 +13°C° 0 mm 2 mps 719 mmHg 85%
    06:00 +13°C° 0 mm 2 mps 720 mmHg 84%
    07:00 +15°C° 0 mm 2 mps 720 mmHg 76%
    08:00 +16°C° 0 mm 2 mps 720 mmHg 69%
    09:00 +18°C° 0 mm 2 mps 720 mmHg 61%
    10:00 +17°C° 0.6 mm 3 mps 720 mmHg 70%
    11:00 +14°C° 0.6 mm 3 mps 720 mmHg 80%
    12:00 +13°C° 0.6 mm 4 mps 721 mmHg 89%
    13:00 +12°C° 2.2 mm 4 mps 721 mmHg 91%
    14:00 +11°C° 2.2 mm 4 mps 721 mmHg 93%
    15:00 +10°C° 2.2 mm 4 mps 722 mmHg 95%
    16:00 +10°C° 1.9 mm 4 mps 722 mmHg 95%
    17:00 +10°C° 1.9 mm 4 mps 723 mmHg 94%
    18:00 +8°C° 1.9 mm 4 mps 723 mmHg 94%
    19:00 +8°C° 0 mm 4 mps 724 mmHg 90%
    20:00 +8°C° 0 mm 4 mps 724 mmHg 87%
    21:00 +8°C° 0 mm 4 mps 725 mmHg 84%
    22:00 +8°C° 0 mm 4 mps 725 mmHg 83%
    23:00 +9°C° 0 mm 3 mps 724 mmHg 82%

    25 April, Thursday

    Time Temperature Precipitation Wind Pressure Humidity
    00:00 +9°C° 0 mm 3 mps 724 mmHg 80%
    01:00 +8°C° 0 mm 3 mps 724 mmHg 82%
    02:00 +8°C° 0 mm 3 mps 724 mmHg 83%
    03:00 +8°C° 0 mm 2 mps 724 mmHg 84%
    04:00 +8°C° 0 mm 2 mps 724 mmHg 82%
    05:00 +9°C° 0 mm 2 mps 724 mmHg 80%
    06:00 +9°C° 0 mm 2 mps 724 mmHg 78%
    07:00 +12°C° 0 mm 3 mps 724 mmHg 65%
    08:00 +14°C° 0 mm 5 mps 724 mmHg 52%
    09:00 +16°C° 0 mm 6 mps 724 mmHg 40%
    10:00 +17°C° 0 mm 6 mps 724 mmHg 39%
    11:00 +18°C° 0 mm 7 mps 724 mmHg 39%
    12:00 +18°C° 0 mm 7 mps 724 mmHg 39%
    13:00 +18°C° 0 mm 7 mps 725 mmHg 41%
    14:00 +18°C° 0 mm 7 mps 725 mmHg 43%
    15:00 +18°C° 0 mm 7 mps 725 mmHg 45%
    16:00 +15°C° 0.5 mm 6 mps 726 mmHg 62%
    17:00 +12°C° 0.5 mm 4 mps 726 mmHg 79%
    18:00 +8°C° 0.5 mm 2 mps 727 mmHg 96%
    19:00 +8°C° 1 mm 2 mps 727 mmHg 96%
    20:00 +7°C° 1 mm 2 mps 728 mmHg 96%
    21:00 +8°C° 1 mm 1 mps 728 mmHg 97%
    22:00 +8°C° 0.8 mm 1 mps 729 mmHg 96%
    23:00 +8°C° 0.8 mm 1 mps 729 mmHg 96%

    26 April, Friday

    Time Temperature Precipitation Wind Pressure Humidity
    00:00 +8°C° 0.8 mm 1 mps 729 mmHg 95%
    01:00 +7°C° 1.1 mm 1 mps 729 mmHg 95%
    02:00 +7°C° 1.1 mm 1 mps 729 mmHg 95%
    03:00 +7°C° 1.1 mm 1 mps 729 mmHg 95%
    04:00 +7°C° 0.2 mm 1 mps 730 mmHg 96%
    05:00 +6°C° 0.2 mm 2 mps 730 mmHg 96%
    06:00 +6°C° 0.2 mm 2 mps 731 mmHg 96%
    07:00 +7°C° 0 mm 2 mps 731 mmHg 91%
    08:00 +8°C° 0 mm 2 mps 732 mmHg 86%
    09:00 +10°C° 0 mm 2 mps 732 mmHg 81%
    10:00 +12°C° 0.4 mm 2 mps 733 mmHg 77%
    11:00 +13°C° 0.4 mm 2 mps 733 mmHg 74%
    12:00 +14°C° 0.4 mm 2 mps 733 mmHg 71%
    13:00 +14°C° 0.4 mm 2 mps 733 mmHg 68%
    14:00 +15°C° 0.4 mm 2 mps 733 mmHg 65%
    15:00 +15°C° 0.4 mm 2 mps 733 mmHg 62%
    16:00 +14°C° 0.5 mm 1 mps 733 mmHg 72%
    17:00 +12°C° 0.5 mm 1 mps 733 mmHg 81%
    18:00 +11°C° 0.5 mm 1 mps 734 mmHg 90%
    19:00 +10°C° 0.1 mm 1 mps 735 mmHg 92%
    20:00 +9°C° 0.1 mm 1 mps 735 mmHg 93%
    21:00 +7°C° 0.1 mm 1 mps 736 mmHg 95%
    22:00 +7°C° 0 mm 1 mps 736 mmHg 95%
    23:00 +7°C° 0 mm 1 mps 737 mmHg 96%
    Show more